Skip Page Navigation
NASA JPL Caltech
NASA Logo - Jet Propulsion Laboratory + View the NASA Portal
+ Center for Near-Earth Object Studies
JPL Home Earth Solar System Stars & Galaxies Technology
JPL Solar System Dynamics
BODIES ORBITS EPHEMERIDES TOOLS PHYSICAL DATA DISCOVERY FAQ SITE MAP
JPL Small-Body Database Browser
Search: [ help ]  
447562 (2006 TM)
Classification: Mars-crossing Asteroid          SPK-ID: 2447562
Ephemeris | Orbit Diagram | Orbital Elements | Mission Design | Physical Parameters | Discovery Circumstances | Close-Approach Data ]

[ show orbit diagram ]
Orbital Elements at Epoch 2459000.5 (2020-May-31.0) TDB
Reference: JPL 16 (heliocentric ecliptic J2000)
 Element Value Uncertainty (1-sigma)   Units 
e .1266836360466869 7.1584e-08  
a 1.681680371681752 7.7222e-09 au
q 1.468638987528764 1.1672e-07 au
i 24.76030166344131 7.127e-06 deg
node 224.2178824008719 1.1187e-05 deg
peri 31.6550803011986 2.6472e-05 deg
M 198.3382819767685 2.7473e-05 deg
tp 2459358.199471716949
(2021-May-23.69947172)
6.1855e-05 TDB
period 796.5510412279341
2.18
5.4866e-06
1.502e-08
d
yr
n .4519484394183166 3.113e-09 deg/d
Q 1.89472175583474 8.7005e-09 au
  Orbit Determination Parameters
   # obs. used (total)      339  
   data-arc span      9490 days (25.98 yr)  
   first obs. used      1993-11-08  
   last obs. used      2019-11-02  
   planetary ephem.      DE431  
   SB-pert. ephem.      SB431-N16  
   condition code      0  
   norm. resid. RMS      .43675  
   source      ORB  
   producer      Otto Matic  
   solution date      2019-Dec-05 02:20:38  

Additional Information
 Earth MOID = .477612 au 
 Jupiter MOID = 3.13032 au 
 T_jup = 4.118 
[ show covariance matrix ]

Ephemeris | Orbit Diagram | Orbital Elements | Mission Design | Physical Parameters | Discovery Circumstances | Close-Approach Data ]

Physical Parameter Table
Parameter Symbol Value Units Sigma Reference Notes
absolute magnitude H 18.1   n/a MPO434663  

447562 (2006 TM)          Discovered 2006-Oct-02 by CSS at Catalina
Reference: Last Updated: 2015-10-28

[ hide close-approach data ]
Close-Approach Data   ...sorted by Date/Time (TDB)
Date/Time (TDB) Time Uncertainty
(days_HH:MM)
Body Nominal Distance (au) Minimum Distance (au) Maximum Distance (au) V-relative (km/s) V-infinity (km/s) JD (TDB) Time Uncertainty (minutes) Semi-major axis (km) Semi-minor axis (km) range-LOV angle (deg) N-sigma BP Orbit Ref. Reference Modified
1901-May-17 04:15 < 00:01 Earth 0.485422096612115 0.48542045222155 0.485423742105299 12.3122133937012 12.3117675685721 2415521.677372056 0.759581442489816 1176.35485846567 15.0106364917811 -86.068791398013 4277641.00023523 T 16 CATAB v2.0f-lin.ifort 2019-Dec-05 02:20:41 2019-Dec-05 02:20
1925-May-19 20:55 < 00:01 Earth 0.496174146208328 0.496172231749671 0.496176061319575 12.2574395140371 12.2570014009481 2424290.371418394 0.612979021562364 914.777033649973 15.7384184121904 -84.0899484575088 4214420.12325258 T 16 CATAB v2.0f-lin.ifort 2019-Dec-05 02:20:41 2019-Dec-05 02:20
1958-Jan-02 02:02 < 00:01 Mars 0.0775126729679213 0.0775104680590225 0.0775148782791882 11.5727350676543 11.5724159113328 2436205.585047506 0.624266972472713 302.422747077129 16.6172736548144 -68.9020018846092 644971.258655625 T 16 CATAB v2.0f-lin.ifort 2019-Dec-05 02:20:41 2019-Dec-05 02:20
1986-May-07 02:29 < 00:01 Earth 0.489770857675957 0.489770201401934 0.489771513966546 12.4298934187601 12.4294557357807 2446557.603761571 0.168627259169968 181.218156617319 19.7798304417557 81.6779805960141 3521283.90729613 T 16 CATAB v2.0f-lin.ifort 2019-Dec-05 02:20:41 2019-Dec-05 02:20
2010-May-09 12:50 < 00:01 Earth 0.482215589987425 0.482215250923238 0.482215929051887 12.4126749884172 12.4122298311031 2455326.034757006 0.051640756107038 67.4224334313277 16.2957823537894 -86.0487084991445 4088936.21137638 T 16 CATAB v2.0f-lin.ifort 2019-Dec-05 02:20:41 2019-Dec-05 02:20
2034-May-12 03:06 < 00:01 Earth 0.478287726225627 0.478287411786542 0.478288040670504 12.38636338822 12.3859136216333 2464094.629434921 0.148664948016959 216.3960849772 14.4701697693254 -88.397013533094 4473796.50908242 T 16 CATAB v2.0f-lin.ifort 2019-Dec-05 02:20:41 2019-Dec-05 02:20
2058-May-14 18:03 < 00:01 Earth 0.478910196417561 0.478909693483939 0.478910699465302 12.3539325570296 12.3534821958342 2472863.251828492 0.297241667395715 452.145824250686 14.4776626006737 -87.40226393865 4421062.19464045 T 16 CATAB v2.0f-lin.ifort 2019-Dec-05 02:20:41 2019-Dec-05 02:20
2082-May-17 08:58 < 00:01 Earth 0.484097984835524 0.48409688353712 0.484099086503905 12.3133471465725 12.3129001431571 2481631.873573451 0.450858943019379 694.797567222221 14.6977420978944 -85.6304439520329 4387263.23111457 T 16 CATAB v2.0f-lin.ifort 2019-Dec-05 02:20:41 2019-Dec-05 02:20
2106-May-21 02:49 < 00:01 Earth 0.49384643285645 0.493844375921277 0.49384849043868 12.2581279551722 12.2576878017504 2490400.617620409 0.615059872861919 907.653635292423 15.5527070049699 -83.584599004336 4289357.48370705 T 16 CATAB v2.0f-lin.ifort 2019-Dec-05 02:20:41 2019-Dec-05 02:20
2162-Dec-31 05:00 00:02 Mars 0.0806606396338179 0.0806549816912636 0.0806663005333017 11.486262700006 11.4859536906547 2511078.708443076 1.70225780531413 821.17619662188 14.6077461674442 69.9242476877662 764872.93856757 T 16 CATAB v2.0f-lin.ifort 2019-Dec-05 02:20:41 2019-Dec-05 02:20
2167-May-08 02:43 < 00:01 Earth 0.494267402226493 0.494264574815552 0.494270230440779 12.4242633766134 12.4238294789392 2512667.613251449 0.911205709604402 1012.57914503087 18.89024858649 82.066229107169 3746974.23401056 T 16 CATAB v2.0f-lin.ifort 2019-Dec-05 02:20:41 2019-Dec-05 02:20
2191-May-10 16:58 00:01 Earth 0.484739889112989 0.484737723175599 0.484742056541065 12.4068289796321 12.4063859318608 2521436.206677587 1.08625700188173 1362.05007496921 17.1847125996752 85.5079784945157 3961363.21309292 T 16 CATAB v2.0f-lin.ifort 2019-Dec-05 02:20:41 2019-Dec-05 02:20

Alternate Designations
 2006 TM = 2004 VB15 = 2010 GE161 
Ephemeris | Orbit Diagram | Orbital Elements | Mission Design | Physical Parameters | Discovery Circumstances | Close-Approach Data ]
ABOUT SSD CREDITS/AWARDS PRIVACY/COPYRIGHT GLOSSARY LINKS
FirstGov 2020-Aug-04 07:53 UT
(server date/time)  
NASA Home Page
Site Manager:   Ryan S. Park
Webmaster  Alan B. Chamberlin